Regional Weather Roundup
Issued by NWS

Home | Current Version | Previous Version | Text Only | Print | Product List | Glossary Off
Versions: 1 2 3 4 5 6 7 8 9 10 11 12 13 14 15 16 17 18 19 20 21 22 23 24 25 26 27 28 29 30 31 32 33 34 35 36 37 38 39 40 41 42 43 44 45 46 47 48 49 50

000
ASUS43 KMPX 020110
RWRMN
WEATHER ROUNDUP FOR MINNESOTA
NATIONAL WEATHER SERVICE TWIN CITIES/CHANHASSEN MN
800 PM CDT WED APR 01 2015


NOTE: "FAIR" INDICATES FEW OR NO CLOUDS BELOW 12,000 FEET WITH NO
SIGNIFICANT WEATHER AND/OR OBSTRUCTIONS TO VISIBILITY. N/A MEANS
CURRENT SKY AND/OR WEATHER CONDITIONS ARE NOT AVAILABLE.

MNZ060>063-068>070-020200-
   Twin Cities Metro

CITY           SKY/WX    TMP DP  RH WIND       PRES   REMARKS
TWIN CITIES    TSTM      75  42  30 S13G23    29.44F
ST PAUL        MOCLDY    73  40  30 S20G25    29.44F
CRYSTAL        TSTM      64  53  67 N8G18     29.44R
LAKEVILLE      MOCLDY    72  41  33 S15       29.45S
EDEN PRAIRIE   TSTM      73  46  38 NW17      29.47R
SOUTH ST PAUL  MOCLDY    73  39  29 S20G30    29.45S
LAKE ELMO      MOCLDY    72  41  33 S14G22    29.46F
$$
MNZ001>005-007-008-013>017-022>024-027-028-020200-
   Northwest Minnesota

CITY           SKY/WX    TMP DP  RH WIND       PRES   REMARKS
BEMIDJI        MOCLDY    57  40  54 W20G25    29.44R
HALLOCK        MOCLDY    54  43  66 W22G32    29.47R
ROSEAU         MOCLDY    52  43  71 W12G20    29.41R
WARROAD        PTCLDY    54  43  66 W14G21    29.40R
THIEF RVR FALL PTCLDY    54  43  66 W9        29.49R
CROOKSTON      MOCLDY    55  43  62 W25G31    29.52R
FOSSTON        PTCLDY    54  43  66 W15G22    29.50R
DETROIT LAKES  PTCLDY    55  41  58 NW20G25   29.53R
MOORHEAD       MOCLDY    61  34  36 NW21G28   29.54R
PARK RAPIDS    MOCLDY    59  39  47 W22G30    29.46R
MAHNOMEN       FAIR      55  43  64 W18G24    29.52R
$$
MNZ006-009>011-018-025>026-020200-
   North Central Minnesota

CITY           SKY/WX    TMP DP  RH WIND       PRES   REMARKS
BAUDETTE       MOCLDY    56  41  57 W16G22    29.36R
FLAG ISLAND    PTCLDY    52  37  58 W14       29.33R
INTL FALLS     CLOUDY    56  36  47 SE6       29.33F
WASKISH        MOCLDY    45  36  70 SW13        N/A
BIG FORK       MOCLDY    59  39  47 SW7       29.35F
LONGVILLE      CLOUDY    63  36  36 W10G22    29.41R
GRAND RAPIDS   MOCLDY    63  39  42 W7        29.40R
CRANE LAKE     CLOUDY    48  34  57 SE2       29.40F
ORR            CLOUDY    52  34  50 CALM      29.35S
COOK           CLOUDY    52  37  58 SE5       29.39S
WALKER         FAIR      59  38  45 W14G23    29.42R
$$
MNZ012-019>021-037-020200-
   Northeast Minnesota

CITY           SKY/WX    TMP DP  RH WIND       PRES   REMARKS
DULUTH         MOCLDY    38  32  79 SE13      29.45S
ELY            MOCLDY    45  30  57 E5        29.43S
EVELETH        MOCLDY    50  36  57 CALM      29.42R
DULUTH HARBOR  MOCLDY    36  34  93 NE6       29.49F
TWO HARBORS    MOCLDY    43  34  70 CALM      29.45R
SILVER BAY     MOCLDY    39  32  75 NE3       29.45R
GRAND MARAIS     N/A     42  32  67 NE10      29.49F
G MARAIS ARPRT CLOUDY    37  28  70 NE8       29.48F
$$
MNZ029>031-032-039>041-046>048-054>057-064-020200-
   West Central Minnesota

CITY           SKY/WX    TMP DP  RH WIND       PRES   REMARKS
FERGUS FALLS   PTCLDY    57  37  47 NW16      29.54R
WHEATON        PTCLDY    57  36  44 W16G23    29.56R
MORRIS         MOCLDY    61  43  51 NW21G26   29.49F
ALEXANDRIA     MOCLDY    59  40  49 NW18G26   29.49F
ELBOW LAKE     FAIR      58  41  52 NW20      29.51F
WADENA         MOCLDY    57  41  54 W17G28    29.47S
GLENWOOD       CLOUDY    57  43  58 NW21      29.48R
APPLETON       MOCLDY    61  41  48 NW17G28   29.50R
BENSON         CLOUDY    57  43  58 N14       29.49R
ORTONVILLE     MOCLDY    61  34  36 NW16G25   29.52F
MADISON        MOCLDY    63  37  39 NW17G23   29.53R
WILLMAR        FAIR      59  39  47 NW9       29.50R
$$
MNZ033>034-036-042>043-049>051-058-059-020200-
   Central Minnesota

CITY           SKY/WX    TMP DP  RH WIND       PRES   REMARKS
ST CLOUD       CLOUDY    64  42  44 W13       29.45R THUNDER
SAUK CENTRE    FAIR      60  41  49 NW21G26   29.46S
PAYNESVILLE    MOCLDY    57  39  51 W13G21    29.48R
AITKIN         CLOUDY    68  37  32 SW7       29.41R
PINE RIVER     CLOUDY    63  39  42 W15G25    29.47R
BRAINERD       CLOUDY    63  36  36 W10G24    29.43R
STAPLES        CLOUDY    57  37  47 W21G29    29.46R
LONG PRAIRIE   FAIR      59  39  47 W20G26    29.46S
LITTLE FALLS   CLOUDY    63  36  36 W15       29.44S
LITCHFIELD     CLOUDY    57  48  72 CALM      29.51R THUNDER
BUFFALO        CLOUDY    63  50  63 SW8       29.47F
MAPLE LAKE     TSTM      59  56  89 SW10      29.51R
$$
MNZ037-044-045-052-053-020200-
   East Central Minnesota

CITY           SKY/WX    TMP DP  RH WIND       PRES   REMARKS
PRINCETON      LGT RAIN  64  54  68 CALM      29.43F
MORA           CLOUDY    59  50  72 S9        29.45F
CAMBRIDGE      CLOUDY    64  52  63 S10       29.43F
RUSH CITY      CLOUDY    60  52  75 S5        29.46F
MOOSE LAKE     CLOUDY    63  50  63 S12G17    29.40S
HINCKLEY       MOCLDY    59  54  82 SE7       29.45F
CLOQUET        MOCLDY    37  32  81 SE6       29.44S
MCGREGOR       CLOUDY    64  43  45 SW6       29.43R
$$
MNZ071>073-080-081-089-090-097-098-020200-
   Southwest Minnesota

CITY           SKY/WX    TMP DP  RH WIND       PRES   REMARKS
MONTEVIDEO     MOCLDY    63  43  48 N17G24    29.51R
GRANITE FALLS  CLOUDY    62  41  46 NW16      29.53R
CANBY          MOCLDY    62  39  43 NW21G28   29.56R
MARSHALL       MOCLDY    63  39  42 NW15      29.54R
REDWOOD FALLS  CLOUDY    60  46  59 NW13      29.51F
OLIVIA         CLOUDY    57  45  62 W3        29.52R THUNDER
PIPESTONE      MOCLDY    64  39  39 N8        29.57R
WINDOM         LGT RAIN  63  48  59 NW18      29.53R
WORTHINGTON    CLOUDY    63  41  45 W15       29.56R THUNDER
JACKSON        CLOUDY    68  50  52 W13       29.52R
TRACY          MOCLDY    65  41  41 N9G18     29.56R
SLAYTON        LGT RAIN  58  46  63 CALM      29.59R
$$
MNZ065>067-074>077-082>085-091>093-020200-
   South Central Minnesota

CITY           SKY/WX    TMP DP  RH WIND       PRES   REMARKS
MANKATO        CLOUDY    75  45  33 S24G31    29.45F
NEW ULM        TSTM      61  45  55 NW24G30   29.51R
ST JAMES       CLOUDY    70  37  30 NW14      29.52
FAIRMONT       CLOUDY    73  46  38 S21       29.48F
GLENCOE        CLOUDY    64  53  67 W16       29.48R
FARIBAULT      MOCLDY    72  41  33 S17G23    29.48S
OWATONNA       MOCLDY    72  37  28 S20G26    29.50F
WASECA         MOCLDY    72  41  33 S23       29.50F
ALBERT LEA     PTCLDY    72  37  28 S15G25    29.54S
$$
MNZ078>079-086>088-094>096-020200-
   Southeast Minnesota

CITY           SKY/WX    TMP DP  RH WIND       PRES   REMARKS
ROCHESTER      MOCLDY    65  41  41 S23G31    29.56F
RED WING       PTCLDY    73  36  25 S20G29    29.49S
STANTON        MOCLDY    70  42  36 S17G26    29.46S
DODGE CENTER   MOCLDY    64  45  48 S21       29.54F
WINONA         PTCLDY    73  36  25 S12G24    29.56F
AUSTIN         PTCLDY    66  39  37 S15G21    29.56F
PRESTON        PTCLDY    65  36  34 S21G29    29.60F
$$
ABBREVIATIONS USED IN REMARKS
   TC - TEMPERATURES IN CELSIUS
  WCI - WIND CHILL INDEX
   HX - HEAT INDEX
  VSB - VISIBILITY
$$


USA.gov is the U.S. government's official web portal to all federal, state and local government web resources and services.